岩本彗星

C/2018 Y1 ( Iwamoto )

English version
Home page
Updated on March 26, 2020

---------------------------------------------------------------------

・ プロフィール

発見日 2018年12月18日
発見光度 12等
発見者 Masayuki Iwamoto (Awa, Tokushima, Japan)

・ 写真集

・ 軌道要素

Epoch 2019 Feb. 6.0 TT = JDT 2458520.5
T 2019 Feb. 7.02951 TT                                  Rudenko
q   1.2869921            (2000.0)            P               Q
z  +0.0069390      Peri.  358.05613     -0.85992921     +0.47751196
 +/-0.0000010      Node   147.48353     +0.47270413     +0.61181681
e   0.9910696      Incl.  160.40344     +0.19254235     +0.63060489
From 2586 observations 2018 Dec. 18-2019 Dec. 2, mean residual 0".5.

・ 星図

・ 光度変化

        m1 = 7.0 + 5 logΔ + 15.0 log r

---------------------------------------------------------------------

軌道要素はM.P.E.C. 2020-F67に掲載されたものです。
星図はステラナビゲータ Ver.10 (アストロアーツ) で作成したものです。
光度グラフはComet for Windowsで作成したものです。

---------------------------------------------------------------------

Copyright(C) Seiichi Yoshida (comet@aerith.net). All rights reserved.